| time (UTC) | temp F | wind direction | speed MPH | gust MPH | rain 1hr in | rain 24hr in | rain mn in | humidity % | barometer mb |
| 20260504223814 | 46 | 156 | 1.0 | 2.0 | 0.00 | 0.00 | 0.00 | 83 | 1016.6 |
| 20260504223315 | 45 | 259 | 0.0 | 0.0 | 0.00 | 0.00 | 0.00 | 83 | 1016.8 |
| 20260504222842 | 45 | 312 | 0.0 | 0.0 | 0.00 | 0.00 | 0.00 | 86 | 1016.7 |
| 20260504222324 | 44 | 56 | 0.0 | 3.0 | 0.00 | 0.00 | 0.00 | 80 | 1016.9 |
| 20260504221825 | 45 | 263 | 1.0 | 4.0 | 0.00 | 0.00 | 0.00 | 77 | 1017.1 |
| 20260504221333 | 46 | 309 | 2.0 | 6.0 | 0.00 | 0.00 | 0.00 | 71 | 1017.2 |
| 20260504220824 | 48 | 271 | 2.0 | 6.0 | 0.00 | 0.00 | 0.00 | 60 | 1017.2 |
| 20260504220409 | 49 | 320 | 3.0 | 5.0 | 0.00 | 0.00 | 0.00 | 52 | 1017.1 |
| 20260504215813 | 49 | 280 | 1.0 | 5.0 | 0.00 | 0.00 | 0.00 | 52 | 1016.8 |
| 20260504215327 | 49 | 257 | 2.0 | 7.0 | 0.00 | 0.00 | 0.00 | 51 | 1015.9 |
| 20260504214825 | 50 | 51 | 4.0 | 9.0 | 0.00 | 0.00 | 0.00 | 50 | 1015.6 |
| 20260504214329 | 50 | 318 | 4.0 | 9.0 | 0.00 | 0.00 | 0.00 | 49 | 1015.5 |
| 20260504213811 | 50 | 37 | 5.0 | 8.0 | 0.00 | 0.00 | 0.00 | 47 | 1015.4 |
| 20260504213328 | 51 | 83 | 5.0 | 9.0 | 0.00 | 0.00 | 0.00 | 46 | 1015.4 |
| 20260504212815 | 51 | 107 | 5.0 | 12.0 | 0.00 | 0.00 | 0.00 | 46 | 1015.6 |
| 20260504212317 | 52 | 32 | 6.0 | 16.0 | 0.00 | 0.00 | 0.00 | 45 | 1015.8 |
| 20260504211837 | 53 | 96 | 9.0 | 16.0 | 0.00 | 0.00 | 0.00 | 42 | 1015.8 |
| 20260504211319 | 54 | 33 | 4.0 | 12.0 | 0.00 | 0.00 | 0.00 | 40 | 1015.7 |
| 20260504210821 | 56 | 86 | 5.0 | 12.0 | 0.00 | 0.00 | 0.00 | 38 | 1015.6 |
| 20260504210318 | 58 | 98 | 5.0 | 10.0 | 0.00 | 0.00 | 0.00 | 34 | 1015.4 |
| 20260504205827 | 60 | 124 | 3.0 | 4.0 | 0.00 | 0.00 | 0.00 | 28 | 1015.5 |
| 20260504205328 | 59 | 101 | 2.0 | 4.0 | 0.00 | 0.00 | 0.00 | 28 | 1015.4 |
| 20260504204831 | 59 | 19 | 2.0 | 6.0 | 0.00 | 0.00 | 0.00 | 33 | 1015.4 |
| 20260504204321 | 60 | 6 | 3.0 | 6.0 | 0.00 | 0.00 | 0.00 | 32 | 1015.4 |
| 20260504203823 | 61 | 17 | 3.0 | 6.0 | 0.00 | 0.00 | 0.00 | 30 | 1015.5 |
| 20260504203324 | 60 | 350 | 1.0 | 6.0 | 0.00 | 0.00 | 0.00 | 32 | 1015.4 |
| 20260504202811 | 59 | 344 | 3.0 | 8.0 | 0.00 | 0.00 | 0.00 | 35 | 1015.6 |
| 20260504202312 | 58 | 284 | 3.0 | 10.0 | 0.00 | 0.00 | 0.00 | 34 | 1015.8 |
| 20260504201814 | 57 | 277 | 2.0 | 6.0 | 0.00 | 0.00 | 0.00 | 34 | 1015.8 |
| 20260504201323 | 57 | 257 | 0.0 | 4.0 | 0.00 | 0.00 | 0.00 | 35 | 1015.9 |
| 20260504200823 | 56 | 228 | 0.0 | 3.0 | 0.00 | 0.00 | 0.00 | 36 | 1015.9 |
| 20260504200345 | 55 | 176 | 1.0 | 5.0 | 0.00 | 0.00 | 0.00 | 37 | 1016.1 |
| 20260504195833 | 54 | 332 | 2.0 | 8.0 | 0.00 | 0.00 | 0.00 | 37 | 1016.2 |
| 20260504195332 | 54 | 214 | 2.0 | 8.0 | 0.00 | 0.00 | 0.00 | 39 | 1016.4 |
| 20260504194854 | 54 | 323 | 3.0 | 8.0 | 0.00 | 0.00 | 0.00 | 38 | 1016.5 |
| 20260504194324 | 54 | 249 | 4.0 | 18.0 | 0.00 | 0.00 | 0.00 | 39 | 1016.6 |
| 20260504193823 | 54 | 156 | 7.0 | 18.0 | 0.00 | 0.00 | 0.00 | 38 | 1016.7 |
| 20260504193324 | 55 | 128 | 8.0 | 17.0 | 0.00 | 0.00 | 0.00 | 37 | 1016.5 |
| 20260504192813 | 55 | 307 | 3.0 | 12.0 | 0.00 | 0.00 | 0.00 | 37 | 1016.4 |
| 20260504192334 | 55 | 293 | 5.0 | 14.0 | 0.00 | 0.00 | 0.00 | 36 | 1016.5 |
| 20260504191834 | 56 | 212 | 6.0 | 14.0 | 0.00 | 0.00 | 0.00 | 35 | 1016.5 |
| 20260504191325 | 57 | 197 | 6.0 | 13.0 | 0.00 | 0.00 | 0.00 | 32 | 1016.4 |
| 20260504190825 | 57 | 275 | 7.0 | 11.0 | 0.00 | 0.00 | 0.00 | 30 | 1016.4 |
| 20260504190326 | 57 | 150 | 4.0 | 11.0 | 0.00 | 0.00 | 0.00 | 33 | 1016.2 |
| 20260504185811 | 57 | 315 | 6.0 | 10.0 | 0.00 | 0.00 | 0.00 | 32 | 1016.6 |
| 20260504185312 | 57 | 245 | 3.0 | 10.0 | 0.00 | 0.00 | 0.00 | 32 | 1016.4 |
| 20260504184814 | 57 | 294 | 5.0 | 10.0 | 0.00 | 0.00 | 0.00 | 34 | 1016.5 |
| 20260504184322 | 58 | 304 | 3.0 | 9.0 | 0.00 | 0.00 | 0.00 | 33 | 1016.5 |
| 20260504183823 | 59 | 274 | 5.0 | 9.0 | 0.00 | 0.00 | 0.00 | 32 | 1016.4 |
| 20260504183326 | 59 | 268 | 3.0 | 6.0 | 0.00 | 0.00 | 0.00 | 33 | 1016.4 |
| 20260504182835 | 58 | 243 | 3.0 | 5.0 | 0.00 | 0.00 | 0.00 | 34 | 1016.5 |
| 20260504182315 | 57 | 335 | 1.0 | 8.0 | 0.00 | 0.00 | 0.00 | 35 | 1016.5 |
| 20260504181823 | 57 | 304 | 3.0 | 8.0 | 0.00 | 0.00 | 0.00 | 35 | 1016.7 |
| 20260504181312 | 57 | 267 | 4.0 | 7.0 | 0.00 | 0.00 | 0.00 | 35 | 1016.7 |
| 20260504180834 | 57 | 274 | 3.0 | 11.0 | 0.00 | 0.00 | 0.00 | 34 | 1016.7 |
| 20260504180311 | 57 | 354 | 6.0 | 11.0 | 0.00 | 0.00 | 0.00 | 33 | 1016.9 |
| 20260504175848 | 58 | 311 | 3.0 | 8.0 | 0.00 | 0.00 | 0.00 | 34 | 1016.9 |
| 20260504175346 | 57 | 257 | 4.0 | 9.0 | 0.00 | 0.00 | 0.00 | 35 | 1016.9 |
| 20260504174826 | 56 | 250 | 3.0 | 11.0 | 0.00 | 0.00 | 0.00 | 36 | 1017.2 |
| 20260504174315 | 56 | 278 | 3.0 | 11.0 | 0.00 | 0.00 | 0.00 | 36 | 1017.3 |
| 20260504173817 | 56 | 323 | 4.0 | 10.0 | 0.00 | 0.00 | 0.00 | 37 | 1017.3 |
| 20260504173320 | 55 | 333 | 5.0 | 10.0 | 0.00 | 0.00 | 0.00 | 36 | 1017.5 |
| 20260504172828 | 55 | 302 | 4.0 | 8.0 | 0.00 | 0.00 | 0.00 | 36 | 1017.4 |
| 20260504172327 | 55 | 229 | 4.0 | 8.0 | 0.00 | 0.00 | 0.00 | 38 | 1017.4 |
| 20260504171829 | 54 | 156 | 5.0 | 9.0 | 0.00 | 0.00 | 0.00 | 37 | 1017.4 |
| 20260504171338 | 54 | 308 | 4.0 | 9.0 | 0.00 | 0.00 | 0.00 | 37 | 1017.3 |
| 20260504170818 | 54 | 56 | 5.0 | 9.0 | 0.00 | 0.00 | 0.00 | 38 | 1017.2 |
| 20260504170320 | 54 | 312 | 1.0 | 10.0 | 0.00 | 0.00 | 0.00 | 39 | 1017.4 |
| 20260504160323 | 52 | 312 | 4.0 | 8.0 | 0.00 | 0.00 | 0.00 | 41 | 1017.6 |
| 20260504150813 | 50 | 63 | 6.0 | 10.0 | 0.00 | 0.00 | 0.00 | 42 | 1017.4 |
| 20260504150316 | 50 | 329 | 3.0 | 9.0 | 0.00 | 0.00 | 0.00 | 42 | 1017.7 |
| 20260504141324 | 50 | 96 | 4.0 | 6.0 | 0.00 | 0.00 | 0.00 | 40 | 1018.0 |
| 20260504140826 | 50 | 273 | 1.0 | 7.0 | 0.00 | 0.00 | 0.00 | 39 | 1017.9 |
| 20260504140329 | 50 | 281 | 3.0 | 7.0 | 0.00 | 0.00 | 0.00 | 39 | 1017.9 |
| 20260504130317 | 50 | 243 | 2.0 | 8.0 | 0.00 | 0.00 | 0.00 | 34 | 1017.4 |
| 20260504110329 | 41 | 14 | 2.0 | 3.0 | 0.00 | 0.00 | 0.00 | 38 | 1017.2 |
| 20260504100350 | 41 | 139 | 0.0 | 0.0 | 0.00 | 0.00 | 0.00 | 41 | 1017.5 |
| 20260504081826 | 41 | 86 | 0.0 | 2.0 | 0.00 | 0.00 | 0.00 | 44 | 1018.2 |
| 20260504081315 | 41 | 87 | 0.0 | 2.0 | 0.00 | 0.00 | 0.00 | 44 | 1018.1 |
| 20260504080834 | 41 | 88 | 0.0 | 2.0 | 0.00 | 0.00 | 0.00 | 45 | 1018.2 |
| 20260504080315 | 41 | 60 | 0.0 | 0.0 | 0.00 | 0.00 | 0.00 | 43 | 1018.3 |
| 20260504070315 | 47 | 335 | 2.0 | 6.0 | 0.00 | 0.00 | 0.00 | 37 | 1018.6 |
| 20260504050314 | 43 | 43 | 0.0 | 0.0 | 0.00 | 0.00 | 0.00 | 46 | 1019.6 |
| 20260504045824 | 43 | 41 | 0.0 | 0.0 | 0.00 | 0.00 | 0.00 | 46 | 1019.6 |
| 20260504045326 | 43 | 326 | 0.0 | 0.0 | 0.00 | 0.00 | 0.00 | 45 | 1019.7 |
| 20260504044828 | 43 | 34 | 0.0 | 0.0 | 0.00 | 0.00 | 0.00 | 45 | 1019.7 |
| 20260504044338 | 43 | 52 | 0.0 | 0.0 | 0.00 | 0.00 | 0.00 | 45 | 1019.7 |
| 20260504043818 | 44 | 34 | 0.0 | 2.0 | 0.00 | 0.00 | 0.00 | 45 | 1019.8 |
| 20260504043319 | 44 | 32 | 0.0 | 3.0 | 0.00 | 0.00 | 0.00 | 45 | 1019.7 |
| 20260504042829 | 44 | 32 | 2.0 | 3.0 | 0.00 | 0.00 | 0.00 | 45 | 1019.7 |
| 20260504042330 | 44 | 347 | 0.0 | 0.0 | 0.00 | 0.00 | 0.00 | 45 | 1019.8 |
| 20260504041852 | 44 | 49 | 0.0 | 0.0 | 0.00 | 0.00 | 0.00 | 45 | 1019.8 |
| 20260504041318 | 45 | 1 | 0.0 | 0.0 | 0.00 | 0.00 | 0.00 | 44 | 1019.9 |
| 20260504040820 | 45 | 18 | 0.0 | 2.0 | 0.00 | 0.00 | 0.00 | 44 | 1019.9 |
| 20260504040320 | 46 | 316 | 1.0 | 2.0 | 0.00 | 0.00 | 0.00 | 43 | 1019.8 |
| 20260504035829 | 47 | 317 | 0.0 | 0.0 | 0.00 | 0.00 | 0.00 | 43 | 1019.9 |
| 20260504035329 | 47 | 134 | 0.0 | 0.0 | 0.00 | 0.00 | 0.00 | 42 | 1019.9 |
| 20260504034319 | 47 | 155 | 0.0 | 2.0 | 0.00 | 0.00 | 0.00 | 42 | 1020.1 |
| 20260504033819 | 47 | 319 | 0.0 | 0.0 | 0.00 | 0.00 | 0.00 | 42 | 1020.1 |
| 20260504033321 | 48 | 113 | 0.0 | 0.0 | 0.00 | 0.00 | 0.00 | 42 | 1020.2 |
| 20260504032813 | 48 | 135 | 0.0 | 0.0 | 0.00 | 0.00 | 0.00 | 42 | 1020.2 |
| 20260504032312 | 49 | 135 | 0.0 | 2.0 | 0.00 | 0.00 | 0.00 | 41 | 1020.2 |
| 20260504031834 | 49 | 117 | 0.0 | 2.0 | 0.00 | 0.00 | 0.00 | 40 | 1020.3 |
| 20260504031325 | 49 | 219 | 0.0 | 0.0 | 0.00 | 0.00 | 0.00 | 39 | 1020.2 |
| 20260504030846 | 50 | 187 | 0.0 | 2.0 | 0.00 | 0.00 | 0.00 | 39 | 1020.2 |
| 20260504030327 | 50 | 131 | 0.0 | 5.0 | 0.00 | 0.00 | 0.00 | 39 | 1020.2 |
| 20260504025817 | 50 | 241 | 1.0 | 5.0 | 0.00 | 0.00 | 0.00 | 38 | 1020.1 |
| 20260504025317 | 50 | 252 | 1.0 | 3.0 | 0.00 | 0.00 | 0.00 | 38 | 1019.9 |
| 20260504024814 | 51 | 144 | 0.0 | 3.0 | 0.00 | 0.00 | 0.00 | 38 | 1019.9 |
| 20260504024322 | 51 | 217 | 1.0 | 3.0 | 0.00 | 0.00 | 0.00 | 38 | 1019.9 |
| 20260504023823 | 51 | 246 | 1.0 | 4.0 | 0.00 | 0.00 | 0.00 | 37 | 1019.9 |
| 20260504023324 | 51 | 150 | 1.0 | 4.0 | 0.00 | 0.00 | 0.00 | 37 | 1019.9 |
| 20260504022814 | 51 | 295 | 1.0 | 3.0 | 0.00 | 0.00 | 0.00 | 37 | 1020.0 |
| 20260504022315 | 52 | 82 | 0.0 | 2.0 | 0.00 | 0.00 | 0.00 | 36 | 1020.0 |
| 20260504021815 | 52 | 82 | 0.0 | 1.0 | 0.00 | 0.00 | 0.00 | 36 | 1019.9 |
| 20260504021325 | 52 | 113 | 0.0 | 4.0 | 0.00 | 0.00 | 0.00 | 35 | 1019.9 |
| 20260504020825 | 52 | 113 | 2.0 | 4.0 | 0.00 | 0.00 | 0.00 | 35 | 1019.9 |
| 20260504020347 | 52 | 231 | 2.0 | 5.0 | 0.00 | 0.00 | 0.00 | 35 | 1019.9 |
| 20260504015814 | 53 | 161 | 2.0 | 5.0 | 0.00 | 0.00 | 0.00 | 34 | 1019.8 |
| 20260504015316 | 53 | 172 | 1.0 | 5.0 | 0.00 | 0.00 | 0.00 | 34 | 1019.8 |
| 20260504014817 | 53 | 114 | 2.0 | 5.0 | 0.00 | 0.00 | 0.00 | 34 | 1019.7 |
| 20260504014323 | 53 | 128 | 0.0 | 0.0 | 0.00 | 0.00 | 0.00 | 34 | 1019.6 |
| 20260504013824 | 54 | 138 | 0.0 | 0.0 | 0.00 | 0.00 | 0.00 | 33 | 1019.7 |
| 20260504013325 | 54 | 146 | 0.0 | 0.0 | 0.00 | 0.00 | 0.00 | 33 | 1019.6 |
| 20260504012817 | 54 | 154 | 0.0 | 5.0 | 0.00 | 0.00 | 0.00 | 33 | 1019.5 |
| 20260504012319 | 55 | 63 | 1.0 | 5.0 | 0.00 | 0.00 | 0.00 | 31 | 1019.5 |
| 20260504011821 | 55 | 113 | 1.0 | 5.0 | 0.00 | 0.00 | 0.00 | 32 | 1019.5 |
| 20260504011335 | 55 | 349 | 1.0 | 5.0 | 0.00 | 0.00 | 0.00 | 31 | 1019.5 |
| 20260504010833 | 55 | 153 | 0.0 | 3.0 | 0.00 | 0.00 | 0.00 | 31 | 1019.6 |
| 20260504010354 | 56 | 260 | 1.0 | 3.0 | 0.00 | 0.00 | 0.00 | 30 | 1019.6 |
| 20260504005843 | 56 | 336 | 1.0 | 5.0 | 0.00 | 0.00 | 0.00 | 30 | 1019.6 |
| 20260504005324 | 57 | 275 | 2.0 | 8.0 | 0.00 | 0.00 | 0.00 | 29 | 1019.7 |
| 20260504004826 | 57 | 323 | 2.0 | 8.0 | 0.00 | 0.00 | 0.00 | 30 | 1019.7 |
| 20260504004317 | 58 | 316 | 3.0 | 12.0 | 0.00 | 0.00 | 0.00 | 29 | 1019.7 |
| 20260504003817 | 58 | 264 | 5.0 | 12.0 | 0.00 | 0.00 | 0.00 | 29 | 1019.9 |
| 20260504003341 | 59 | 291 | 4.0 | 8.0 | 0.00 | 0.00 | 0.00 | 29 | 1019.8 |
| 20260504002823 | 58 | 342 | 2.0 | 11.0 | 0.00 | 0.00 | 0.00 | 29 | 1019.9 |
| 20260504002324 | 59 | 317 | 4.0 | 10.0 | 0.00 | 0.00 | 0.00 | 28 | 1020.0 |
| 20260504001825 | 59 | 338 | 4.0 | 9.0 | 0.00 | 0.00 | 0.00 | 28 | 1020.0 |
| 20260504001314 | 59 | 329 | 4.0 | 9.0 | 0.00 | 0.00 | 0.00 | 29 | 1020.0 |
| 20260504000836 | 58 | 283 | 2.0 | 10.0 | 0.00 | 0.00 | 0.00 | 31 | 1019.9 |
| 20260504000336 | 58 | 298 | 3.0 | 9.0 | 0.00 | 0.00 | 0.00 | 31 | 1019.9 |
| 20260503235825 | 57 | 283 | 2.0 | 10.0 | 0.00 | 0.00 | 0.00 | 32 | 1020.0 |
| 20260503235328 | 57 | 264 | 3.0 | 12.0 | 0.00 | 0.00 | 0.00 | 32 | 1020.0 |
| 20260503234828 | 57 | 281 | 6.0 | 16.0 | 0.00 | 0.00 | 0.00 | 31 | 1020.3 |
| 20260503234318 | 57 | 302 | 5.0 | 11.0 | 0.00 | 0.00 | 0.00 | 29 | 1020.3 |
| 20260503233841 | 57 | 239 | 5.0 | 10.0 | 0.00 | 0.00 | 0.00 | 29 | 1020.3 |
| 20260503233321 | 56 | 282 | 5.0 | 13.0 | 0.00 | 0.00 | 0.00 | 29 | 1020.4 |
| 20260503232812 | 56 | 304 | 4.0 | 13.0 | 0.00 | 0.00 | 0.00 | 29 | 1020.4 |
| 20260503232332 | 56 | 281 | 6.0 | 13.0 | 0.00 | 0.00 | 0.00 | 29 | 1020.5 |
| 20260503231833 | 56 | 278 | 6.0 | 14.0 | 0.00 | 0.00 | 0.00 | 29 | 1020.4 |
| 20260503231320 | 56 | 291 | 9.0 | 21.0 | 0.00 | 0.00 | 0.00 | 30 | 1020.4 |
| 20260503230822 | 57 | 22 | 8.0 | 20.0 | 0.00 | 0.00 | 0.00 | 30 | 1020.6 |
| 20260503230344 | 59 | 342 | 7.0 | 14.0 | 0.00 | 0.00 | 0.00 | 26 | 1020.2 |
| 20260503225828 | 59 | 299 | 4.0 | 11.0 | 0.00 | 0.00 | 0.00 | 26 | 1019.9 |
| 20260503225351 | 60 | 284 | 1.0 | 3.0 | 0.00 | 0.00 | 0.00 | 27 | 1019.6 |
| 20260503224831 | 60 | 137 | 0.0 | 8.0 | 0.00 | 0.00 | 0.00 | 25 | 1019.6 |
| 20260503224322 | 61 | 144 | 2.0 | 9.0 | 0.00 | 0.00 | 0.00 | 25 | 1019.5 |